TimeCST,TemperatureF,Dew PointF,Humidity,Sea Level PressureIn,VisibilityMPH,Wind Direction,Wind SpeedMPH,Gust SpeedMPH,PrecipitationIn,Events,Conditions,WindDirDegrees,DateUTC
12:15 AM,35.6,23.0,60,30.19,10.0,SE,3.5,-,N/A,,Clear,140,2013-02-17 06:15:00
12:35 AM,35.6,23.0,60,30.19,10.0,ESE,3.5,-,N/A,,Clear,120,2013-02-17 06:35:00
12:55 AM,35.6,23.0,60,30.19,10.0,ESE,3.5,-,N/A,,Clear,110,2013-02-17 06:55:00
1:15 AM,35.6,23.0,60,30.19,10.0,ESE,3.5,-,N/A,,Clear,120,2013-02-17 07:15:00
1:35 AM,35.6,23.0,60,30.19,10.0,Calm,Calm,-,N/A,,Clear,0,2013-02-17 07:35:00
1:55 AM,35.6,23.0,60,30.18,10.0,SE,3.5,-,N/A,,Clear,130,2013-02-17 07:55:00
2:15 AM,35.6,23.0,60,30.18,10.0,ESE,3.5,-,N/A,,Clear,110,2013-02-17 08:15:00
2:35 AM,33.8,23.0,65,30.17,10.0,SE,4.6,-,N/A,,Clear,130,2013-02-17 08:35:00
2:55 AM,33.8,23.0,65,30.17,10.0,SE,4.6,-,N/A,,Clear,130,2013-02-17 08:55:00
3:15 AM,33.8,23.0,65,30.17,10.0,SE,4.6,-,N/A,,Clear,130,2013-02-17 09:15:00
3:35 AM,33.8,23.0,65,30.16,10.0,ESE,4.6,-,N/A,,Clear,120,2013-02-17 09:35:00
3:55 AM,33.8,24.8,70,30.15,10.0,ESE,4.6,-,N/A,,Clear,110,2013-02-17 09:55:00
4:15 AM,33.8,24.8,70,30.14,10.0,ESE,4.6,-,N/A,,Clear,110,2013-02-17 10:15:00
4:35 AM,33.8,24.8,70,30.14,10.0,ESE,4.6,-,N/A,,Clear,110,2013-02-17 10:35:00
4:55 AM,33.8,24.8,70,30.14,10.0,East,4.6,-,N/A,,Clear,100,2013-02-17 10:55:00
5:15 AM,33.8,24.8,70,30.14,10.0,East,4.6,-,N/A,,Clear,90,2013-02-17 11:15:00
5:35 AM,33.8,24.8,70,30.14,10.0,East,4.6,-,N/A,,Clear,80,2013-02-17 11:35:00
5:55 AM,33.8,24.8,70,30.14,10.0,East,3.5,-,N/A,,Clear,80,2013-02-17 11:55:00
6:15 AM,33.8,24.8,70,30.14,10.0,East,3.5,-,N/A,,Clear,90,2013-02-17 12:15:00
6:35 AM,33.8,26.6,75,30.14,10.0,East,3.5,-,N/A,,Clear,90,2013-02-17 12:35:00
6:55 AM,33.8,26.6,75,30.14,10.0,East,3.5,-,N/A,,Clear,100,2013-02-17 12:55:00
7:15 AM,33.8,26.6,75,30.14,10.0,East,4.6,-,N/A,,Clear,80,2013-02-17 13:15:00
7:35 AM,33.8,26.6,75,30.14,10.0,East,4.6,-,N/A,,Clear,90,2013-02-17 13:35:00
7:55 AM,35.6,26.6,70,30.15,10.0,Calm,Calm,-,N/A,,Clear,0,2013-02-17 13:55:00
8:15 AM,37.4,28.4,70,30.15,10.0,ESE,4.6,-,N/A,,Clear,120,2013-02-17 14:15:00
8:35 AM,41.0,28.4,61,30.15,10.0,SE,5.8,-,N/A,,Clear,130,2013-02-17 14:35:00
8:55 AM,42.8,30.2,61,30.15,10.0,SE,8.1,-,N/A,,Clear,130,2013-02-17 14:55:00
9:15 AM,42.8,30.2,61,30.15,10.0,SSE,6.9,-,N/A,,Clear,150,2013-02-17 15:15:00
9:35 AM,44.6,32.0,61,30.15,10.0,SSE,5.8,-,N/A,,Clear,150,2013-02-17 15:35:00
9:55 AM,48.2,32.0,54,30.15,10.0,South,5.8,-,N/A,,Clear,190,2013-02-17 15:55:00
10:15 AM,51.8,32.0,47,30.15,10.0,South,5.8,-,N/A,,Clear,180,2013-02-17 16:15:00
10:35 AM,53.6,32.0,44,30.14,10.0,South,3.5,-,N/A,,Clear,190,2013-02-17 16:35:00
10:55 AM,55.4,32.0,41,30.13,10.0,South,3.5,-,N/A,,Clear,190,2013-02-17 16:55:00
11:15 AM,59.0,32.0,36,30.13,10.0,South,5.8,-,N/A,,Clear,170,2013-02-17 17:15:00
11:35 AM,62.6,32.0,32,30.12,10.0,SSW,5.8,-,N/A,,Clear,210,2013-02-17 17:35:00
11:55 AM,62.6,32.0,32,30.11,10.0,SSW,6.9,-,N/A,,Clear,200,2013-02-17 17:55:00
12:15 PM,64.4,32.0,30,30.09,10.0,SSW,8.1,16.1,N/A,,Clear,210,2013-02-17 18:15:00
12:35 PM,66.2,32.0,28,30.07,10.0,SSW,8.1,-,N/A,,Clear,200,2013-02-17 18:35:00
12:55 PM,68.0,32.0,26,30.05,10.0,SSW,12.7,18.4,N/A,,Clear,200,2013-02-17 18:55:00
1:15 PM,68.0,32.0,26,30.04,10.0,South,10.4,19.6,N/A,,Clear,180,2013-02-17 19:15:00
1:35 PM,68.0,30.2,24,30.03,10.0,South,10.4,17.3,N/A,,Clear,170,2013-02-17 19:35:00
1:55 PM,69.8,28.4,21,30.02,10.0,South,15.0,20.7,N/A,,Clear,180,2013-02-17 19:55:00
2:15 PM,69.8,30.2,23,30.01,10.0,South,11.5,-,N/A,,Clear,170,2013-02-17 20:15:00
2:35 PM,69.8,28.4,21,30.00,10.0,SSW,13.8,20.7,N/A,,Clear,200,2013-02-17 20:35:00
2:55 PM,69.8,28.4,21,29.99,7.0,SSW,10.4,16.1,N/A,,Clear,210,2013-02-17 20:55:00
3:15 PM,69.8,26.6,20,29.99,10.0,SSW,13.8,20.7,N/A,,Clear,210,2013-02-17 21:15:00
3:35 PM,69.8,28.4,21,29.98,10.0,South,13.8,19.6,N/A,,Clear,180,2013-02-17 21:35:00
3:55 PM,69.8,28.4,21,29.98,10.0,South,9.2,20.7,N/A,,Clear,190,2013-02-17 21:55:00
4:15 PM,69.8,26.6,20,29.97,10.0,South,11.5,21.9,N/A,,Clear,180,2013-02-17 22:15:00
4:35 PM,69.8,26.6,20,29.97,10.0,South,11.5,19.6,N/A,,Clear,180,2013-02-17 22:35:00
4:55 PM,68.0,23.0,18,29.97,10.0,South,8.1,26.5,N/A,,Clear,180,2013-02-17 22:55:00
5:15 PM,68.0,28.4,23,29.96,10.0,South,16.1,23.0,N/A,,Clear,170,2013-02-17 23:15:00
5:35 PM,66.2,28.4,24,29.96,10.0,South,10.4,18.4,N/A,,Clear,170,2013-02-17 23:35:00
5:55 PM,64.4,28.4,26,29.97,10.0,South,10.4,19.6,N/A,,Clear,180,2013-02-17 23:55:00
6:15 PM,62.6,28.4,27,29.96,10.0,South,9.2,-,N/A,,Clear,170,2013-02-18 00:15:00
6:35 PM,62.6,26.6,26,29.96,10.0,South,9.2,-,N/A,,Clear,170,2013-02-18 00:35:00
6:55 PM,62.6,28.4,27,29.97,10.0,South,6.9,-,N/A,,Clear,170,2013-02-18 00:55:00
7:15 PM,60.8,28.4,29,29.97,10.0,South,8.1,-,N/A,,Clear,170,2013-02-18 01:15:00
7:35 PM,60.8,28.4,29,29.97,10.0,South,8.1,-,N/A,,Clear,170,2013-02-18 01:35:00
7:55 PM,60.8,28.4,29,29.97,10.0,SSE,8.1,-,N/A,,Clear,160,2013-02-18 01:55:00
8:15 PM,59.0,30.2,34,29.97,10.0,SE,5.8,-,N/A,,Clear,140,2013-02-18 02:15:00
8:35 PM,57.2,30.2,36,29.97,10.0,SSE,5.8,-,N/A,,Clear,150,2013-02-18 02:35:00
8:55 PM,55.4,30.2,38,29.97,10.0,SSE,6.9,-,N/A,,Clear,150,2013-02-18 02:55:00
9:15 PM,55.4,30.2,38,29.97,10.0,SSE,8.1,-,N/A,,Clear,150,2013-02-18 03:15:00
9:35 PM,55.4,30.2,38,29.97,10.0,SE,6.9,-,N/A,,Clear,140,2013-02-18 03:35:00
9:55 PM,55.4,32.0,41,29.97,10.0,SSE,9.2,-,N/A,,Clear,150,2013-02-18 03:55:00
10:15 PM,57.2,32.0,38,29.97,10.0,South,11.5,19.6,N/A,,Clear,170,2013-02-18 04:15:00
10:35 PM,57.2,33.8,41,29.97,10.0,SSE,13.8,-,N/A,,Clear,160,2013-02-18 04:35:00
10:55 PM,57.2,35.6,44,29.97,10.0,SSE,13.8,19.6,N/A,,Clear,160,2013-02-18 04:55:00
11:15 PM,57.2,37.4,48,29.97,10.0,SSE,11.5,17.3,N/A,,Clear,160,2013-02-18 05:15:00
11:35 PM,55.4,37.4,51,29.97,10.0,SSE,11.5,-,N/A,,Clear,160,2013-02-18 05:35:00
11:55 PM,55.4,37.4,51,29.97,10.0,SSE,10.4,17.3,N/A,,Scattered Clouds,160,2013-02-18 05:55:00